Weather History for KLUK - August, 2013

Change the Weather History Date:

Wednesday, August 28, 2013

  Actual Average Record
Temperature  
Mean Temperature 84 °F -  
Max Temperature 95 °F 83 °F 97 °F (2007)
Min Temperature 75 °F 64 °F 48 °F (1986)
Cooling Degree Days 19    
Growing Degree Days 34 (Base 50)    
Moisture  
Dew Point 73 °F    
Average Humidity 76    
Maximum Humidity 96    
Minimum Humidity 43    
Precipitation  
Precipitation 0.10 in - - ()
Sea Level Pressure  
Sea Level Pressure 29.93 in    
Wind  
Wind Speed 7 mph (WSW)    
Max Wind Speed 15 mph    
Max Gust Speed 25 mph    
Visibility 8 miles    
Events Rain    
Averages and records for this station are not official NWS values.
T = Trace of Precipitation, MM = Missing Value Source: NWS Daily Summary

Daily Weather History Graph

Daily Weather History Graph

Search for Another Location

Airport or City:

Trip Planner

Search our weather history database for the weather conditions in past years. The results will help you decide how hot, cold, wet, or windy it might be!

Date:

Astronomy

Aug. 28, 2013 Rise Set
Actual Time 7:02 AM EDT 8:13 PM EDT
Civil Twilight 6:35 AM EDT 8:41 PM EDT
Nautical Twilight 6:02 AM EDT 9:14 PM EDT
Astronomical Twilight 5:27 AM EDT 9:48 PM EDT
Moon 12:11 AM EDT (8/28) 2:49 PM EDT (8/28)
Length of Visible Light 14h 06m
Length of Day
13h 10m
Waning Gibbous, 47% of the Moon is Illuminated
Aug 28
Waning Gibbous
Sep 5
New
Sep 12
First Quarter
Sep 19
Full
Sep 26
Last Quarter

Hourly Weather History & Observations

Time (EDT) Temp. Heat Index Dew Point Humidity Pressure Visibility Wind Dir Wind Speed Gust Speed Precip Events Conditions
12:53 AM 77.0 °F - 73.0 °F 88% 29.98 in 8.0 mi SSW 5.8 mph - N/A   Clear
1:53 AM 77.0 °F - 73.0 °F 88% 29.96 in 8.0 mi SW 9.2 mph - N/A   Clear
2:53 AM 77.0 °F - 73.0 °F 88% 29.96 in 8.0 mi SW 5.8 mph - N/A   Clear
3:53 AM 75.9 °F - 72.0 °F 87% 29.97 in 8.0 mi SW 3.5 mph - N/A   Clear
4:53 AM 75.9 °F - 72.0 °F 87% 29.96 in 8.0 mi SW 4.6 mph - N/A   Clear
5:53 AM 75.0 °F - 73.0 °F 94% 29.96 in 7.0 mi SW 5.8 mph - N/A   Clear
6:53 AM 75.0 °F - 72.0 °F 90% 29.96 in 7.0 mi SW 8.1 mph - N/A   Clear
7:53 AM 75.9 °F - 72.0 °F 87% 29.95 in 6.0 mi SW 5.8 mph - N/A   Partly Cloudy
8:53 AM 79.0 °F - 72.0 °F 79% 29.94 in 8.0 mi West 6.9 mph 16.1 mph N/A   Clear
9:53 AM 82.0 °F 86.3 °F 71.1 °F 69% 29.94 in 10.0 mi West 10.4 mph - N/A   Clear
10:53 AM 84.9 °F 89.4 °F 70.0 °F 61% 29.93 in 10.0 mi WSW 10.4 mph - N/A   Clear
11:53 AM 88.0 °F 92.9 °F 70.0 °F 55% 29.93 in 10.0 mi West 12.7 mph 21.9 mph N/A   Clear
12:53 PM 90.0 °F 95.4 °F 70.0 °F 52% 29.92 in 10.0 mi West 12.7 mph 19.6 mph N/A   Clear
1:53 PM 91.0 °F 96.6 °F 70.0 °F 50% 29.91 in 10.0 mi West 11.5 mph 20.7 mph N/A   Clear
2:53 PM 93.0 °F 100.1 °F 71.1 °F 49% 29.90 in 10.0 mi West 11.5 mph - N/A   Partly Cloudy
3:53 PM 93.9 °F 98.6 °F 68.0 °F 43% 29.88 in 10.0 mi West 15.0 mph 25.3 mph N/A   Scattered Clouds
4:53 PM 93.9 °F 99.1 °F 69.1 °F 44% 29.87 in 10.0 mi West 15.0 mph 25.3 mph N/A   Mostly Cloudy
5:53 PM 81.0 °F 85.8 °F 73.0 °F 77% 29.88 in 5.0 mi NE 8.1 mph 23.0 mph 0.03 in Rain Light Rain
6:14 PM 82.4 °F 88.2 °F 73.4 °F 74% 29.90 in 1.8 mi NNW 10.4 mph 23.0 mph 0.07 in Rain Heavy Rain
6:20 PM 82.4 °F 88.2 °F 73.4 °F 74% 29.89 in 3.0 mi WNW 3.5 mph 16.1 mph 0.07 in Rain Light Rain
6:53 PM 82.9 °F 92.8 °F 78.1 °F 85% 29.88 in 10.0 mi Calm Calm - 0.07 in   Mostly Cloudy
7:53 PM 84.0 °F 91.9 °F 75.0 °F 74% 29.89 in 10.0 mi NW 6.9 mph - N/A   Scattered Clouds
8:53 PM 77.0 °F - 75.9 °F 96% 29.91 in 6.0 mi South 3.5 mph - N/A   Clear
9:53 PM 77.0 °F - 75.9 °F 96% 29.94 in 6.0 mi Calm Calm - N/A   Clear
10:53 PM 77.0 °F - 75.9 °F 96% 29.95 in 5.0 mi Calm Calm - N/A   Mostly Cloudy
11:53 PM 77.0 °F - 75.9 °F 96% 29.96 in 4.0 mi NE 3.5 mph - N/A   Overcast